Back to catalog

SL-16 DEB

AliveLEO
NORAD 22400·DEBRIS·🇷🇺 Russia

Launched Dec 25, 1992 from Baikonur Cosmodrome

Loading…

Next Passes (next 24 hours)

TLE

FreshSource: Space-Track

Epoch: Sep 14, 2026, 06:32 UTC

1 22400U 92093CR  26257.27276900  .00000158  00000-0  15018-3 0  9998
2 22400  71.2424   4.9817 0154595 142.3684 245.8437 13.88914706705402

Track SL-16 DEB in real time with AllMySat

Download on the App Store